Wind_Speed
38 37 35 34 33 30 27 25 22 20 18 16 17 17 16 14 12 12 13 13 13 13 14 14 14 13 12 11 10 10 10 10 10 11 11 11 12 13 14 14 13 14 15 15 15 15 16 17 17 17 17 18 17 16 14 9 6 6 6 7 9 10 13 15 12 11 18 22 24 27 31 32 33 34 35 36 36 35 34 34 32 31 32 34 36
40 38 37 36 34 32 29 26 23 21 19 18 18 18 16 14 13 14 15 16 16 16 16 15 15 13 12 10 10 10 11 12 12 12 13 14 14 15 15 15 15 15 15 15 15 16 17 19 19 18 19 19 17 16 16 14 11 10 9 9 11 11 12 16 15 12 16 22 25 27 30 30 33 35 36 36 37 35 35 36 35 32 31 33 35
40 39 38 37 35 33 30 27 25 23 21 20 20 18 16 14 14 15 17 18 18 17 17 15 14 13 12 12 11 12 13 13 14 14 16 17 17 16 16 16 16 17 17 17 16 16 17 18 19 20 20 19 17 18 20 19 18 17 14 12 13 14 13 16 18 16 16 21 24 27 30 31 33 36 36 37 37 34 33 36 36 33 31 31 33
39 39 39 38 36 34 31 28 27 25 24 22 21 19 16 14 14 16 18 19 19 19 18 16 15 14 13 12 12 13 14 15 15 16 17 16 15 14 15 16 17 17 17 16 16 16 17 18 19 20 21 21 21 22 23 24 23 20 18 17 17 17 17 18 20 20 19 20 23 27 30 32 34 36 36 36 37 34 32 34 36 35 33 32 32
38 38 38 37 36 35 32 30 29 28 26 24 22 19 17 15 16 18 19 20 20 19 18 18 16 15 13 12 13 14 15 15 15 15 14 12 12 13 14 15 16 15 14 14 14 15 17 18 18 19 21 22 23 24 25 26 25 22 21 22 22 21 20 20 22 24 23 22 24 27 30 32 33 35 35 34 35 35 34 35 36 35 33 32 31
37 38 38 37 37 36 33 32 30 29 27 25 23 20 18 18 19 20 20 20 19 19 18 17 17 17 15 13 14 15 15 13 12 12 12 12 14 15 14 13 13 13 12 12 13 14 15 16 16 16 19 22 24 25 25 25 25 26 27 26 25 24 22 22 23 24 24 24 25 27 30 31 31 33 34 32 32 33 34 36 36 32 29 29 30
37 38 38 38 38 37 35 33 32 30 28 26 24 21 20 20 21 22 21 19 17 17 16 16 15 15 13 12 14 15 13 12 11 12 13 14 14 14 13 12 12 12 12 12 12 12 13 13 14 16 17 20 22 23 24 25 27 29 30 28 26 24 22 22 24 24 25 24 24 26 29 30 30 32 34 33 31 31 30 30 32 33 31 30 30
38 39 39 39 38 36 35 34 33 30 28 27 25 22 21 22 23 23 21 18 16 15 15 13 12 11 11 12 13 12 11 12 13 13 14 14 14 14 14 14 13 12 12 12 12 12 13 13 15 17 17 17 18 19 21 24 26 28 29 28 26 24 23 23 23 23 23 23 23 26 27 28 29 31 31 30 28 29 28 26 27 32 35 34 33
39 39 39 38 37 36 36 35 32 29 29 28 25 23 22 22 23 23 21 18 17 17 15 14 14 14 13 13 13 13 13 14 14 13 12 12 13 14 14 14 14 14 14 14 15 15 15 15 16 17 16 17 18 18 18 21 23 25 26 25 24 24 22 22 22 23 22 20 22 25 24 25 28 29 27 26 26 29 32 30 29 31 34 34 36
40 41 40 37 36 36 36 34 32 31 31 29 26 24 23 23 23 23 22 21 20 19 17 17 16 16 16 15 14 15 16 16 15 13 12 13 14 15 15 15 15 15 16 17 18 18 17 17 18 17 17 18 18 18 19 18 18 19 21 21 23 24 23 23 23 22 21 19 22 23 21 22 27 28 27 28 31 32 32 30 28 30 30 28 31
40 39 35 33 34 35 34 33 34 34 33 29 26 25 24 24 25 25 24 23 21 20 18 18 17 17 18 17 16 16 18 18 16 14 13 14 15 15 15 15 14 15 16 17 19 20 19 19 19 18 17 17 17 18 18 16 14 14 16 17 19 22 23 23 23 23 22 21 22 24 22 24 29 30 29 31 32 32 31 30 28 28 26 19 19
33 29 25 26 30 34 34 35 37 37 34 30 27 26 26 27 27 26 26 25 23 21 19 19 19 19 20 20 19 18 19 19 18 16 16 16 16 16 15 13 12 12 14 16 18 19 18 18 18 17 16 15 16 18 18 15 12 12 14 15 16 18 19 20 21 22 23 22 23 25 26 28 29 30 31 31 32 33 33 32 29 27 26 22 18
33 33 30 30 33 36 36 36 37 37 35 30 27 28 29 29 28 27 26 25 24 21 21 21 22 22 23 22 22 21 20 20 20 19 18 18 16 15 14 13 12 12 13 15 16 16 16 16 16 17 16 15 16 18 16 14 13 13 14 15 16 17 17 17 18 19 22 23 24 27 30 30 30 31 34 35 35 36 34 32 31 28 27 27 26
39 38 36 38 39 38 36 36 37 37 35 31 30 30 31 31 29 28 27 26 25 23 23 24 25 25 24 23 23 23 22 21 21 21 20 17 15 14 14 13 12 13 14 14 15 14 14 14 15 17 17 16 17 17 14 14 14 15 16 16 17 18 17 17 17 18 22 23 24 28 32 33 33 35 39 38 37 37 35 34 34 32 31 32 34
37 37 37 39 37 35 35 36 38 38 35 33 33 34 34 33 31 29 28 27 26 25 25 26 26 26 24 24 25 25 24 23 22 21 18 15 13 14 15 13 13 15 15 14 13 12 12 13 15 16 16 17 18 16 13 14 15 17 18 18 18 19 19 18 18 20 23 25 27 30 34 36 37 38 41 41 40 41 42 41 41 39 37 36 35
32 33 34 34 32 35 38 38 38 38 37 35 35 35 36 36 33 31 29 29 28 27 26 26 26 26 24 23 23 22 22 22 20 18 15 13 14 15 14 14 15 16 15 13 11 11 11 12 14 15 16 16 16 14 13 15 16 17 19 20 20 21 21 21 20 21 23 26 30 34 36 37 39 39 42 43 44 46 47 44 42 40 33 28 27
16 20 24 25 30 37 39 39 39 39 37 36 37 37 38 37 35 32 31 31 30 28 27 27 26 23 19 17 18 18 18 17 16 15 14 14 15 15 14 14 15 15 14 12 10 10 12 13 14 15 16 14 12 11 11 14 16 17 20 21 21 22 23 24 24 24 24 27 31 35 37 38 39 40 42 44 44 47 45 41 39 35 26 17 15
20 27 29 28 34 39 40 41 41 39 37 37 39 39 39 38 36 33 32 32 32 29 27 23 18 15 12 12 14 14 14 14 15 16 16 16 16 15 13 13 13 13 13 12 11 12 14 15 14 13 13 12 10 10 11 14 16 18 19 19 20 22 24 27 28 27 26 28 32 35 37 39 40 40 43 44 45 46 42 38 38 33 22 15 13
38 41 37 33 37 41 42 42 41 39 38 39 40 40 40 38 36 33 31 32 29 24 19 14 10 9 10 10 11 11 12 14 16 17 17 17 16 14 12 12 11 12 13 13 14 15 15 14 12 11 11 10 10 12 14 14 15 16 16 16 18 22 25 27 28 29 29 31 34 36 38 40 41 42 44 45 45 45 41 37 37 31 21 19 18
46 43 38 38 42 43 42 42 41 39 39 40 40 40 38 35 32 29 27 26 21 14 9 6 7 8 9 10 12 12 13 13 14 14 15 15 15 13 12 11 10 11 13 14 16 17 15 11 9 8 8 10 12 15 16 14 14 14 13 14 17 20 24 27 27 27 28 30 32 35 36 39 41 43 45 46 45 45 42 38 37 30 23 24 23
35 31 30 32 34 36 39 41 40 39 39 39 36 34 31 27 24 21 18 16 12 7 4 3 7 10 11 12 13 12 11 11 11 13 14 14 13 12 11 9 9 10 13 15 15 14 13 10 7 6 7 10 13 15 14 12 12 12 12 15 17 19 22 24 24 23 24 27 32 34 35 38 40 43 45 46 47 47 45 43 39 27 24 27 24
21 22 25 24 25 33 41 41 38 37 35 31 27 23 19 18 17 16 16 15 11 6 3 4 8 12 11 11 12 11 10 11 11 12 12 12 11 10 9 9 8 11 14 16 14 12 11 9 7 6 9 12 13 12 10 9 10 11 12 14 15 17 18 19 19 21 23 26 30 31 32 35 38 41 44 46 49 50 49 48 40 24 24 29 28
23 27 30 28 31 39 41 37 33 30 26 22 19 16 15 17 18 18 18 14 7 3 5 8 12 13 12 12 12 11 10 11 12 12 11 11 11 10 9 8 9 12 14 15 13 11 10 8 7 8 10 12 11 8 7 7 9 11 12 13 14 15 16 17 18 20 23 25 26 27 29 32 34 37 42 46 50 53 50 48 39 18 22 25 27
27 29 32 32 36 38 33 27 25 21 18 17 17 18 20 21 19 15 13 10 6 6 10 14 15 14 14 13 12 10 10 10 12 12 12 12 10 9 8 8 11 13 13 12 12 11 9 9 8 9 9 8 7 5 6 8 10 11 12 12 14 16 17 18 19 21 22 23 24 25 27 31 33 35 40 45 49 51 47 44 37 15 18 23 22
26 29 31 32 33 30 22 18 17 15 16 18 20 23 22 18 14 12 11 10 9 11 15 16 16 15 13 11 9 8 9 10 11 12 12 11 9 8 8 9 10 11 11 10 10 10 10 9 8 7 6 5 4 5 7 8 9 11 12 12 14 17 19 19 19 21 21 21 23 25 27 31 33 35 38 42 45 47 45 42 40 27 5 19 21
26 28 29 28 25 20 16 13 14 16 18 20 22 22 18 13 12 11 10 10 11 13 16 17 15 13 11 8 8 9 10 11 12 12 11 10 9 8 9 9 10 10 10 9 8 9 8 7 4 3 3 2 4 6 7 7 8 10 11 12 15 18 19 19 19 19 20 21 24 26 27 30 33 35 38 40 40 44 47 42 37 37 24 4 17
27 26 25 23 18 14 15 17 18 18 19 19 19 18 14 12 12 11 12 12 13 14 15 13 12 11 10 8 9 12 13 12 12 12 11 10 10 9 10 10 10 10 9 8 7 7 4 2 1 1 2 3 5 7 7 8 9 11 12 13 16 18 18 18 17 18 19 21 23 26 28 29 32 35 38 38 37 41 47 42 33 36 37 20 2
26 24 21 18 15 14 17 19 18 18 18 17 16 15 12 11 12 13 13 14 14 14 13 12 11 10 9 10 11 13 13 13 12 12 11 10 10 10 10 10 9 8 7 7 5 2 2 3 2 1 2 4 7 8 10 11 11 12 13 14 16 17 18 19 19 19 21 22 22 25 28 29 31 33 35 35 35 38 42 42 34 31 34 30 20
20 20 18 16 17 18 17 16 17 18 18 16 14 13 13 13 14 14 15 14 13 12 11 9 8 7 7 9 11 12 13 13 12 11 10 9 9 9 9 7 6 6 6 6 2 2 4 2 1 2 2 5 8 11 13 14 14 15 15 16 17 19 20 21 22 22 23 23 23 25 28 28 29 31 33 33 34 37 38 37 36 32 31 29 24
14 12 11 12 14 14 13 14 17 19 18 17 16 15 14 14 14 15 15 13 11 9 8 6 6 5 5 6 8 10 11 10 9 8 8 8 8 7 6 4 4 5 5 3 1 3 3 1 2 3 4 7 9 12 14 15 16 17 18 18 18 20 21 21 22 22 22 23 23 24 26 27 27 29 31 30 32 35 35 34 35 35 31 26 23
7 8 11 10 6 7 14 19 21 20 20 19 19 18 17 15 13 13 12 11 9 7 5 4 4 4 4 4 5 6 6 6 6 7 7 7 7 5 3 1 2 4 3 0 3 3 1 1 3 4 5 6 9 11 12 14 16 17 19 19 19 20 21 22 22 22 22 22 23 24 25 25 26 27 29 29 30 32 33 34 35 35 32 27 23
6 11 14 11 11 20 25 26 24 23 22 21 21 21 20 17 15 12 11 9 8 6 4 4 3 3 4 4 5 4 4 5 5 5 5 6 7 6 3 0 2 2 1 1 1 1 2 2 4 5 6 7 9 10 12 13 15 16 17 18 19 19 20 21 20 21 22 22 23 24 25 25 26 27 27 28 29 30 31 33 34 32 31 29 27
15 15 16 19 23 28 29 27 25 25 24 23 22 21 20 19 17 15 12 10 8 7 5 4 3 3 4 4 4 3 4 4 4 3 4 4 6 6 4 1 2 3 2 3 2 2 4 5 6 7 8 9 9 10 11 13 14 15 15 16 17 17 18 19 19 20 21 22 23 24 25 25 26 27 27 27 27 27 28 30 31 30 29 27 26
15 15 16 20 22 24 25 25 25 24 22 21 21 20 19 19 18 18 17 14 11 9 7 6 5 4 3 3 4 5 5 4 3 2 1 2 5 7 7 4 2 3 2 2 2 4 5 6 7 7 8 8 9 10 11 12 12 14 15 15 15 15 16 17 19 20 21 22 23 24 25 26 26 26 27 27 26 26 27 28 28 27 26 25 24
10 11 13 15 19 21 22 22 20 19 19 20 20 20 20 19 19 19 18 16 15 13 11 9 8 7 6 5 6 6 6 4 3 2 2 3 5 7 9 7 5 3 1 2 4 5 5 5 6 6 6 7 8 9 10 11 11 12 14 15 15 15 15 17 18 19 21 22 23 24 24 25 26 26 25 25 26 25 26 27 26 24 24 24 23
9 9 10 13 15 17 17 16 15 15 17 18 19 20 20 20 20 19 17 16 16 15 14 13 12 10 9 7 7 6 5 4 3 2 3 4 4 5 8 10 9 6 4 3 3 3 3 3 4 5 5 6 6 7 8 9 10 10 12 14 15 14 14 16 17 18 20 21 23 23 23 24 26 27 25 25 25 25 24 25 26 25 25 25 24
8 8 10 12 13 13 13 13 13 13 14 15 17 18 19 19 19 18 17 17 16 16 16 15 14 13 11 9 8 6 4 3 3 2 2 3 1 3 8 10 9 7 5 3 1 1 2 2 3 4 5 5 6 7 7 9 10 10 11 13 13 12 12 13 14 17 20 21 22 23 23 23 24 25 25 24 25 25 25 25 26 26 26 27 26
8 8 8 9 11 11 11 11 11 12 13 14 16 18 18 19 19 19 18 18 17 17 17 17 16 15 13 11 9 8 7 6 6 5 2 0 2 5 6 7 6 6 5 3 2 2 3 3 3 4 5 5 5 6 7 9 10 10 11 12 11 10 10 11 13 16 19 21 22 23 23 23 24 24 24 24 24 25 25 26 26 26 27 27 25
8 7 8 8 8 8 8 9 11 12 12 13 15 16 17 18 19 19 19 18 18 17 17 17 18 16 15 13 10 10 10 10 10 10 8 6 6 7 7 5 5 5 5 3 2 2 3 3 2 3 3 4 5 6 8 10 10 9 9 10 10 10 10 12 14 17 19 20 21 22 23 23 24 24 24 24 24 25 25 25 25 25 24 24 23
8 8 8 7 7 7 8 9 10 10 12 13 15 16 17 19 20 20 19 18 17 17 17 18 19 18 16 14 11 10 10 10 9 9 10 10 11 11 9 7 7 6 5 4 3 2 2 2 2 2 3 4 5 6 9 10 9 8 8 9 9 10 11 13 15 17 19 20 21 22 23 23 24 24 25 24 24 25 24 24 25 24 23 24 24
6 7 7 7 7 7 7 8 10 11 12 13 13 12 12 13 14 17 18 17 17 17 17 18 19 18 16 14 11 9 10 10 8 8 10 12 14 13 10 8 8 7 6 5 3 2 2 2 1 2 2 3 5 7 9 10 9 8 8 9 9 10 11 13 15 16 18 19 20 21 22 23 23 24 25 25 25 25 25 25 25 25 24 24 25
7 7 7 6 6 7 8 8 9 9 10 10 9 9 9 8 8 10 13 14 16 17 18 18 18 18 16 14 12 11 10 9 9 10 12 13 13 11 9 7 7 6 6 5 4 3 3 2 1 1 2 3 4 7 9 9 9 9 8 8 9 11 12 14 15 16 17 19 20 20 21 22 23 24 24 25 25 25 25 26 25 25 26 25 25
7 6 6 5 5 6 7 8 8 9 9 8 6 5 6 7 7 8 10 12 14 17 18 19 20 18 16 14 13 11 9 9 10 11 12 12 11 10 8 7 6 5 5 5 4 4 4 3 2 1 2 2 4 6 9 9 8 8 8 8 9 11 12 13 14 15 17 18 19 20 20 21 23 24 24 25 26 26 26 26 26 26 26 25 25
7 6 5 5 4 4 7 10 10 9 6 3 2 3 4 6 9 10 10 11 13 16 18 20 20 18 16 14 12 11 10 10 11 10 11 11 11 10 8 7 7 7 6 5 5 5 5 4 3 3 2 2 4 6 9 9 8 7 8 8 8 10 12 13 14 15 16 17 18 19 19 20 22 23 23 24 25 26 26 27 26 26 26 26 25
7 5 4 3 3 5 8 9 9 6 5 5 6 8 9 9 11 11 9 9 11 14 17 19 19 18 16 14 11 10 11 12 11 11 11 11 11 10 8 7 8 9 9 7 6 6 6 5 4 3 2 2 4 6 8 9 8 7 7 8 8 9 11 12 13 14 14 15 16 17 18 19 20 21 22 23 24 24 25 26 26 26 26 26 25
5 4 3 3 4 6 7 6 5 5 6 8 10 11 11 10 10 10 10 9 11 13 15 17 18 17 14 12 10 10 11 11 10 11 11 10 10 10 7 7 9 12 11 8 7 7 6 5 4 3 1 1 3 6 9 10 8 6 7 7 6 7 9 10 11 12 12 13 14 15 16 17 18 19 19 21 22 23 24 25 25 26 26 26 25
4 3 2 3 4 5 6 6 6 7 9 9 10 10 11 11 10 10 9 9 9 11 14 16 17 15 13 11 10 10 11 10 9 9 10 9 9 8 6 7 11 14 13 9 7 7 6 5 4 3 1 1 2 5 9 10 8 6 6 6 5 6 7 9 9 10 10 10 11 12 13 15 16 17 18 19 20 22 23 24 24 25 26 26 26
5 3 0 4 7 8 7 7 7 8 10 11 11 10 10 10 11 11 11 10 10 12 15 16 16 15 13 12 11 11 11 11 10 10 10 9 9 8 9 12 14 14 13 11 9 8 7 5 4 3 2 0 1 3 8 10 8 6 6 6 4 5 6 8 8 8 8 8 9 10 11 12 14 15 16 17 18 20 23 23 23 24 25 26 26
4 6 6 2 4 8 10 10 10 10 11 12 13 13 12 12 12 12 13 13 13 14 16 17 17 16 15 14 13 12 12 12 12 12 12 12 12 11 14 15 15 13 13 12 10 8 8 7 5 4 3 2 1 3 7 10 9 6 6 6 4 3 4 6 8 7 7 8 9 10 10 10 12 14 15 16 16 18 21 22 22 23 25 25 26
2 5 6 7 6 4 5 8 11 13 15 15 16 15 15 15 15 15 16 16 16 16 17 18 18 18 18 17 15 14 13 13 13 14 15 15 16 16 17 16 15 14 14 12 9 8 8 8 6 5 4 3 2 2 5 9 10 8 6 6 4 2 3 4 6 6 7 8 11 11 10 9 11 13 15 15 15 17 20 22 22 22 24 25 25
4 5 5 5 6 6 6 6 5 7 10 14 18 19 18 17 17 18 18 19 20 20 20 20 19 18 18 18 16 14 13 13 13 14 14 15 17 19 18 16 14 15 14 12 9 9 10 10 8 7 6 5 4 2 3 7 9 9 7 6 4 1 3 4 4 6 6 8 11 11 10 10 12 14 16 16 16 17 19 21 21 22 23 24 24
Wind_Direction
191 191 191 193 196 198 201 204 205 206 208 210 211 211 210 213 228 240 238 237 237 239 247 250 253 259 263 267 268 271 279 285 291 294 293 293 295 296 295 293 288 283 279 273 262 257 258 257 254 254 256 256 254 250 246 249 262 258 257 263 263 267 266 261 260 277 296 304 306 310 316 318 317 318 318 317 317 317 314 310 305 297 289 284 281
191 190 190 192 197 199 201 202 202 204 208 211 211 209 211 221 234 237 236 239 242 247 252 254 256 258 259 265 271 278 285 288 291 293 291 290 290 291 291 287 285 281 273 269 265 261 261 257 253 255 254 252 253 256 254 254 259 258 255 256 256 262 266 263 265 273 289 302 306 309 314 315 313 315 317 315 314 315 313 312 310 302 293 287 282
190 189 189 192 197 199 199 200 200 203 206 209 211 213 217 226 233 235 238 241 244 249 252 251 253 257 259 265 269 276 284 285 288 291 291 294 293 291 288 283 282 280 274 270 270 271 268 261 259 258 249 246 258 264 258 258 260 258 259 260 258 262 268 267 268 270 280 296 305 307 311 312 310 312 314 313 312 312 311 310 309 305 297 290 285
189 188 189 192 196 198 198 199 200 202 205 209 213 217 219 221 227 236 241 244 248 252 252 251 253 258 262 267 271 275 280 282 288 292 293 293 291 288 288 286 285 286 283 278 275 277 276 270 268 265 253 253 264 265 258 257 258 257 261 268 266 267 273 273 272 273 277 288 298 303 306 307 306 309 311 311 311 311 309 307 306 305 300 294 288
187 186 188 190 194 196 197 198 200 203 205 210 215 217 216 219 227 235 241 247 253 254 253 252 253 255 259 265 270 275 279 285 291 292 289 290 291 292 293 290 290 294 292 287 281 280 281 279 277 271 260 261 267 266 261 258 255 257 264 267 267 270 274 277 278 279 278 282 292 300 303 303 302 305 308 309 309 310 309 307 305 304 302 299 293
185 184 186 189 192 195 196 197 200 203 206 211 215 216 216 220 228 236 242 248 251 251 250 249 249 252 256 261 272 280 283 283 282 281 282 290 296 297 294 288 288 291 290 288 287 286 287 286 285 279 269 269 272 268 264 261 257 260 264 263 264 268 273 278 282 282 280 282 289 296 299 300 299 301 305 307 307 306 307 307 305 304 303 303 299
183 183 185 188 191 193 194 197 200 204 208 212 215 217 219 223 229 236 240 241 240 238 238 239 243 251 258 269 279 281 279 276 275 278 283 290 295 294 288 282 282 283 281 280 281 283 287 290 290 287 282 280 279 275 272 270 266 267 269 266 264 268 273 279 283 283 283 285 289 292 295 298 297 298 302 306 305 302 302 302 303 304 303 301 298
183 183 186 189 190 191 194 198 201 204 209 213 215 217 221 226 232 235 234 232 231 231 233 240 250 260 266 272 274 269 271 280 283 285 285 285 287 285 278 274 275 278 276 276 278 279 284 292 294 292 289 288 290 288 285 281 275 274 277 272 266 268 276 280 283 284 284 285 288 291 294 297 298 297 301 306 304 302 301 299 297 298 300 298 295
183 184 188 189 187 190 196 200 202 205 209 212 213 216 220 227 231 230 228 232 236 237 243 255 261 263 263 265 267 265 271 280 280 281 282 281 281 279 273 270 269 271 274 278 282 283 285 294 299 296 294 298 301 300 297 293 285 282 285 281 273 271 276 282 285 285 286 288 290 293 294 296 297 299 301 303 299 299 301 298 292 292 294 294 291
183 187 190 186 186 191 196 199 203 206 208 210 212 214 218 224 227 226 229 237 241 242 250 258 258 259 261 263 265 265 268 273 277 280 280 278 278 274 270 268 267 271 279 283 285 286 287 293 299 300 300 304 306 303 302 303 298 292 291 289 282 277 277 283 287 287 290 291 291 293 294 293 295 297 298 298 297 296 296 294 290 291 292 290 290
186 189 187 180 185 192 195 200 206 208 208 209 212 214 217 221 225 228 233 238 241 245 252 255 255 258 260 261 262 262 263 266 271 275 274 271 271 268 264 265 270 277 286 291 291 291 291 292 295 297 302 306 306 305 306 307 306 303 299 293 287 281 280 281 284 289 293 292 291 293 292 290 294 297 297 297 297 295 294 291 287 286 287 285 287
183 185 180 179 189 194 196 203 208 208 209 210 211 215 219 222 225 228 233 238 241 246 251 255 258 259 257 256 258 258 258 260 262 266 267 265 263 262 262 266 275 289 298 301 300 299 297 294 291 291 298 307 309 309 307 304 303 302 299 295 290 286 284 283 285 289 291 290 290 292 291 291 295 298 298 297 297 295 293 290 283 278 277 274 272
180 181 181 187 196 197 200 205 207 208 210 211 212 217 219 221 224 227 232 237 241 246 251 255 258 259 257 255 254 254 255 256 257 259 262 261 259 259 262 268 281 300 313 314 311 308 304 297 291 290 296 304 309 309 305 299 296 294 292 290 289 288 288 286 289 294 293 289 286 288 291 294 295 296 298 297 296 295 293 288 283 277 270 266 266
183 180 181 189 196 199 202 204 206 209 211 211 213 217 219 220 223 227 233 237 239 243 248 251 255 258 258 257 255 255 257 256 255 258 259 258 258 259 262 268 284 303 316 319 317 317 315 305 297 297 300 303 306 305 298 292 289 287 288 288 287 289 287 284 292 305 306 299 291 290 294 297 295 296 299 298 295 292 290 287 285 279 271 268 267
183 179 180 184 193 205 207 204 206 210 211 211 214 217 220 222 224 226 231 234 237 241 246 249 254 257 259 259 257 257 259 257 255 257 255 254 259 261 261 267 282 297 308 316 318 318 319 313 308 308 308 305 304 300 291 288 288 286 286 287 288 291 287 282 291 307 311 309 304 299 300 302 301 301 302 301 297 293 291 287 284 280 276 271 266
181 179 176 178 195 211 209 204 207 210 209 210 213 217 220 222 224 226 228 232 237 241 245 249 253 256 257 258 257 259 261 258 254 252 248 252 259 257 256 265 279 291 302 312 315 315 316 314 314 316 312 305 301 293 285 287 290 288 286 285 289 290 286 283 292 304 311 314 313 309 309 311 310 309 307 304 301 298 294 289 284 279 272 264 258
155 161 169 186 210 215 207 205 208 208 208 209 212 217 220 222 225 226 226 230 235 239 244 249 253 254 253 257 260 260 256 250 246 242 241 248 251 249 253 268 281 291 300 306 307 311 314 311 312 316 312 303 295 287 286 291 292 289 287 288 291 290 286 289 297 303 310 316 318 318 319 319 317 315 313 311 309 304 296 287 282 276 262 248 249
154 171 187 207 219 215 207 206 208 207 207 210 213 217 219 222 226 227 227 231 235 239 244 249 250 249 253 263 260 250 243 243 243 242 242 244 245 246 257 271 279 286 293 298 304 311 315 312 311 314 310 303 295 292 295 296 293 291 289 290 293 292 293 301 306 307 309 316 321 324 325 325 322 321 320 318 316 310 298 287 285 278 251 228 238
179 188 199 211 215 214 210 208 208 207 208 212 215 217 220 224 228 229 229 231 234 238 242 248 252 250 256 257 243 239 250 256 251 246 243 241 241 247 260 267 270 277 287 297 307 314 316 314 315 316 308 297 295 301 305 302 297 293 289 290 294 297 303 309 309 307 308 313 319 324 326 328 327 326 324 322 320 316 305 296 295 284 249 222 226
191 197 206 209 209 212 212 209 207 209 212 216 218 219 222 225 226 225 226 229 233 237 243 263 263 244 236 237 240 251 260 253 245 242 239 236 240 250 258 258 261 275 290 303 311 314 317 318 319 322 310 295 296 304 308 304 296 291 289 296 302 304 307 308 306 306 308 311 316 321 325 329 330 328 327 325 324 321 315 312 308 290 250 223 218
199 203 211 213 209 211 214 211 209 212 217 220 220 220 222 225 223 220 219 214 207 200 207 266 252 232 230 238 246 251 246 237 236 238 239 241 245 249 251 252 263 282 296 307 313 314 316 319 321 323 312 301 301 306 305 300 294 294 301 311 313 310 310 310 309 311 312 314 319 323 325 329 330 329 329 329 328 327 324 323 320 296 246 223 214
204 205 211 218 221 222 220 215 212 216 220 220 217 216 219 217 208 196 183 172 168 178 222 254 239 229 230 232 233 232 230 231 237 239 242 248 248 247 250 259 277 293 301 307 311 313 314 310 306 306 304 303 305 306 303 298 303 311 317 321 321 319 320 320 320 321 320 322 323 323 325 329 329 328 331 331 332 333 332 331 327 300 242 224 216
203 202 203 212 228 233 227 217 214 217 219 216 211 203 192 182 173 168 165 163 169 230 244 231 221 216 214 214 219 224 225 229 235 240 245 247 247 251 260 272 290 300 302 303 305 308 309 299 289 293 297 300 305 306 305 309 317 324 328 330 334 336 335 334 333 333 331 330 326 322 325 329 329 328 331 332 335 337 335 336 335 301 233 223 219
204 200 199 210 228 235 228 215 214 218 216 212 201 181 169 164 161 164 173 183 204 218 211 209 208 205 206 212 216 215 218 226 233 237 241 243 248 256 265 282 297 300 300 300 296 296 297 293 291 291 287 293 304 310 316 322 327 333 336 340 346 350 349 347 345 343 340 335 328 324 326 331 330 329 331 334 337 338 336 340 348 329 227 220 220
196 196 202 213 223 227 222 213 216 216 207 199 184 170 165 165 167 179 196 207 212 203 195 196 199 199 206 213 213 211 220 228 230 230 235 239 244 253 269 288 298 296 297 298 291 289 292 291 289 278 266 280 312 323 326 331 336 339 342 350 357 359 359 357 353 350 344 335 330 329 330 333 333 331 335 339 339 340 341 345 357 5 290 225 224
198 200 205 206 207 210 205 194 189 183 178 177 172 168 171 177 180 185 190 191 190 185 182 185 191 198 209 216 214 215 222 226 226 226 229 234 240 255 275 290 294 292 291 291 288 289 287 280 271 251 244 291 333 333 332 333 339 347 355 5 9 7 5 1 356 351 344 336 335 334 331 335 338 338 342 345 342 345 348 347 355 13 18 265 221
187 190 190 183 179 182 173 160 156 156 158 162 167 170 175 180 178 176 176 173 170 172 176 184 193 201 211 215 212 214 220 226 228 230 233 239 249 263 280 290 292 289 285 285 292 295 275 216 155 234 273 326 344 346 351 352 354 3 11 15 14 11 8 3 357 352 347 341 338 336 334 341 347 345 345 347 345 349 353 350 354 12 20 22 15
154 154 152 148 152 160 158 153 153 156 159 163 166 166 168 171 171 171 173 173 175 177 181 190 199 204 211 213 211 212 221 230 234 235 238 245 257 271 282 288 290 292 294 298 303 297 164 145 102 353 309 339 348 352 359 3 6 12 17 17 15 11 9 7 3 359 356 349 342 340 342 348 351 348 346 347 347 351 354 353 355 7 17 24 29
120 127 129 139 156 161 157 158 164 166 164 164 160 157 161 168 171 171 172 175 181 186 189 194 203 209 214 217 216 217 225 232 233 235 241 251 263 271 276 281 288 300 310 311 305 141 137 126 19 10 1 356 355 358 2 6 12 17 17 16 14 10 9 8 4 0 359 355 348 346 348 349 350 350 350 348 349 352 354 354 358 5 12 19 24
93 109 120 134 148 152 155 167 174 174 170 165 159 153 153 160 166 168 169 173 180 188 194 199 208 215 216 217 219 224 230 233 231 236 251 262 261 256 258 275 303 314 317 314 172 142 133 74 22 20 12 8 8 9 10 10 10 11 12 13 12 9 7 6 4 1 359 356 353 351 351 351 351 352 352 350 350 353 354 356 2 7 8 10 16
90 123 122 109 119 173 186 183 179 176 172 168 164 158 152 150 156 162 165 169 172 180 188 189 191 198 200 201 205 213 224 233 239 251 263 260 243 227 224 272 319 323 325 107 133 131 119 30 25 19 19 28 29 23 18 15 11 8 7 8 8 8 7 5 5 4 1 358 357 357 356 355 355 354 354 353 352 353 355 360 6 8 5 5 9
218 182 155 155 191 197 191 185 179 176 172 168 167 165 157 150 148 151 157 160 159 161 168 171 176 184 189 194 198 205 220 232 242 252 252 233 216 203 182 58 341 332 304 198 149 93 69 60 58 53 51 53 47 35 26 21 16 12 9 5 4 7 8 6 7 8 6 2 359 359 359 359 359 359 358 357 356 355 357 1 6 6 3 3 5
240 221 185 181 188 186 183 183 180 176 172 169 170 172 170 164 158 153 151 152 153 155 157 158 171 187 196 203 204 202 201 205 212 223 224 216 211 206 192 171 335 326 284 236 215 114 101 89 78 71 62 55 48 36 27 21 16 15 12 7 6 7 7 8 10 11 10 6 2 1 2 3 3 3 2 1 359 359 1 3 5 5 2 1 3
227 218 189 181 182 179 180 182 180 177 178 180 181 183 183 181 175 165 158 155 153 152 148 145 151 161 169 177 172 158 157 161 160 169 208 242 231 220 211 210 259 300 291 225 152 112 98 85 75 67 55 47 42 32 23 17 16 15 12 7 5 5 7 10 12 11 9 8 5 4 4 6 6 5 4 3 1 1 3 5 5 5 2 359 1
193 189 177 177 178 177 177 178 179 184 190 191 192 192 190 187 182 176 172 169 164 157 151 145 142 141 142 148 151 143 136 132 120 96 33 329 276 239 222 213 211 217 173 112 95 84 77 68 59 50 40 36 34 28 23 20 19 16 10 4 2 3 6 10 11 11 11 9 6 5 5 6 8 8 7 6 5 3 2 2 2 3 4 1 360
159 163 170 177 180 180 182 186 192 198 201 199 197 195 192 187 183 180 179 176 170 164 159 153 148 148 151 157 162 152 131 115 108 87 36 358 316 248 213 196 186 173 148 118 86 55 35 31 34 38 43 43 37 31 25 20 18 14 8 1 358 360 6 10 11 13 14 12 9 8 7 6 8 10 9 9 8 5 3 2 2 3 5 4 4
180 180 178 180 185 188 192 195 196 198 203 203 198 192 189 187 185 182 178 175 172 169 166 162 160 161 161 161 166 172 168 157 155 139 54 27 352 208 191 180 173 166 150 129 96 32 16 29 55 56 55 51 41 31 21 13 9 6 360 357 358 1 9 14 15 17 18 16 13 12 10 8 9 11 10 9 8 6 5 5 4 4 5 8 10
199 199 193 191 191 188 187 187 185 185 190 192 190 188 188 187 185 183 178 175 175 175 174 172 171 172 170 169 177 193 206 211 210 209 210 215 195 195 188 177 170 163 151 130 100 75 73 85 89 67 47 36 27 21 14 7 1 356 353 356 2 10 18 22 23 24 24 21 17 16 14 11 10 11 12 11 8 6 6 6 6 6 6 8 11
194 193 191 192 193 191 190 188 184 181 182 182 185 190 190 185 182 182 181 178 177 179 180 179 179 179 178 180 191 208 221 232 238 237 237 235 214 197 191 182 167 157 152 145 128 110 103 98 84 57 36 25 18 13 8 2 355 351 355 3 14 24 29 31 30 29 27 24 20 18 17 15 13 13 15 14 10 8 7 7 7 8 6 5 7
176 172 175 182 188 192 196 195 195 199 202 200 195 192 189 184 182 182 183 181 180 182 184 185 186 187 187 190 203 218 223 226 231 231 226 216 199 189 188 188 177 168 168 170 153 128 131 132 87 47 28 18 13 6 2 1 2 4 9 18 30 39 39 38 36 33 29 26 23 21 20 19 16 14 15 16 14 11 10 8 8 10 10 8 8
162 163 168 175 182 191 200 203 207 213 213 204 191 180 177 179 183 186 185 181 180 184 189 191 191 192 192 195 201 203 199 196 196 196 194 189 183 183 187 192 191 190 194 196 185 163 159 159 109 49 40 32 19 7 4 8 17 23 27 35 47 52 48 43 40 37 34 30 26 23 22 21 19 16 15 17 17 15 15 14 12 12 14 15 14
152 153 156 163 179 193 198 199 201 201 194 182 170 162 159 156 166 186 190 184 181 185 187 186 186 187 190 191 189 186 186 188 185 181 180 180 182 189 195 197 198 204 206 203 195 184 176 171 151 86 58 42 22 9 9 16 24 29 35 48 58 56 50 45 41 40 38 34 30 27 25 24 23 20 19 20 21 19 17 17 16 16 17 18 19
136 143 149 158 175 192 198 195 186 172 162 154 149 158 171 170 177 195 194 183 182 186 183 177 177 179 181 183 186 189 195 194 186 182 185 187 191 199 202 196 189 189 191 192 196 200 199 192 176 143 80 51 27 13 14 19 25 31 40 53 62 58 51 46 43 40 38 36 34 31 28 27 26 23 22 23 24 22 20 19 19 19 19 20 22
122 127 131 136 150 181 194 190 180 169 166 179 220 231 215 201 199 199 185 168 172 182 181 176 176 176 175 179 189 200 205 199 191 188 190 191 193 201 205 200 191 183 183 191 202 207 207 198 181 159 115 66 29 13 13 17 23 34 43 52 62 62 53 46 42 39 36 36 36 34 31 30 27 25 24 26 27 25 22 21 20 20 21 22 23
123 123 122 129 147 164 173 180 189 206 235 243 229 217 210 203 204 208 197 172 170 181 183 181 179 178 178 181 189 199 203 203 202 203 201 199 200 206 213 216 210 202 199 202 205 209 209 200 187 171 136 76 27 15 17 19 22 34 45 51 60 63 54 46 42 39 37 37 37 36 34 32 30 27 27 29 31 30 26 24 23 22 23 24 24
135 138 134 147 166 175 182 194 215 226 217 206 204 207 209 210 215 221 214 192 180 183 186 186 183 181 180 180 183 192 200 206 212 219 221 217 212 214 227 235 217 204 200 202 206 210 211 206 201 194 163 82 27 21 23 23 23 33 43 49 62 66 56 49 46 43 41 39 39 38 37 34 33 33 33 33 35 36 33 30 28 26 25 26 26
124 147 167 184 188 196 206 211 207 199 195 199 205 209 211 215 221 223 219 209 200 196 194 191 187 185 182 179 181 188 194 197 203 212 218 219 217 215 218 213 200 194 194 198 200 203 206 208 205 200 181 74 17 22 24 24 27 37 41 45 67 77 64 55 52 48 45 43 39 37 37 36 36 38 38 38 39 40 38 36 33 31 30 30 29
90 80 116 229 222 221 220 213 203 203 208 212 215 217 220 225 229 227 222 217 210 203 199 196 194 193 191 188 186 187 188 192 200 206 212 223 231 220 199 191 190 190 191 192 192 194 198 202 201 199 197 247 359 19 22 23 30 44 42 41 65 89 77 64 58 54 52 47 39 36 39 41 40 40 41 42 42 42 41 41 39 36 35 34 34
64 48 36 357 260 248 244 236 227 224 225 226 227 228 229 231 233 231 226 221 213 204 200 199 199 200 200 197 194 193 197 206 215 218 218 227 232 218 198 191 191 191 190 190 190 192 195 197 201 208 218 241 312 17 23 23 25 30 32 32 50 91 89 70 63 63 61 50 42 43 49 48 45 44 44 45 46 47 47 46 44 42 41 39 38
348 2 16 25 24 357 297 264 250 245 242 238 234 233 232 232 233 235 232 225 217 208 203 201 202 206 209 208 204 202 208 218 225 228 231 235 231 216 201 196 196 196 196 194 191 192 197 201 205 213 223 239 269 340 16 19 16 11 9 13 26 81 114 89 69 69 69 54 47 51 59 58 52 49 49 49 51 52 52 51 49 47 46 44 43
328 336 356 16 25 28 25 7 328 292 270 254 244 238 235 233 233 234 233 228 221 217 213 211 212 213 214 211 208 209 214 221 224 225 229 228 217 205 198 197 198 199 199 196 192 194 201 205 206 210 217 226 233 260 356 13 14 12 6 359 360 62 138 122 81 71 74 62 52 56 67 68 60 56 55 55 54 54 54 54 53 51 50 49 49
Height
785 787 790 794 797 800 802 803 805 807 809 811 812 812 813 814 815 817 817 818 818 818 819 819 818 818 818 818 819 818 818 818 817 817 816 816 816 816 816 816 816 815 814 814 813 813 812 811 811 810 809 809 808 808 808 808 807 806 806 805 804 804 803 802 800 794 791 791 789 787 785 782 778 775 772 768 765 764 762 759 758 757 755 753 751
781 784 787 791 794 796 798 801 802 805 806 808 810 810 810 811 813 814 815 816 817 817 817 817 817 817 816 817 817 817 817 816 816 815 815 815 814 814 814 814 814 813 812 812 811 811 810 809 808 808 807 807 807 808 807 806 805 804 803 802 801 801 801 800 798 793 789 787 786 784 782 780 776 772 770 766 762 761 758 755 753 752 751 749 747
777 780 784 787 791 793 795 797 799 802 804 806 807 808 808 808 810 812 813 814 815 815 815 815 815 815 815 815 815 815 815 815 814 814 813 813 812 812 812 812 811 811 810 809 809 809 808 807 807 806 806 805 805 806 805 803 802 801 800 799 798 798 798 797 795 792 787 784 783 781 778 777 774 769 767 763 760 758 755 751 749 748 747 745 743
774 778 781 784 788 791 792 794 796 798 801 803 805 805 805 806 808 809 810 812 812 813 813 813 813 813 813 813 813 813 813 813 813 812 811 811 811 810 810 810 809 809 808 808 807 807 806 806 805 804 804 803 802 802 802 800 799 799 798 797 796 795 794 793 792 789 786 782 781 779 776 774 771 767 764 760 756 754 752 748 745 743 742 740 738
772 775 779 782 785 787 789 791 793 795 798 800 802 803 803 804 805 807 808 809 810 810 811 811 811 811 811 811 811 811 812 811 811 810 809 809 808 808 807 807 807 807 807 806 805 805 804 803 803 802 801 800 799 799 798 798 797 797 796 794 794 792 791 790 789 787 785 781 778 776 775 772 768 764 762 758 753 750 748 745 742 740 737 735 733
769 772 776 779 782 785 785 787 790 793 795 797 799 800 801 802 803 804 806 807 807 808 809 809 809 809 809 809 809 809 809 809 809 808 808 807 806 806 805 805 805 805 804 804 803 803 802 801 800 800 799 798 797 796 795 795 794 793 791 790 790 789 788 787 786 785 782 780 777 774 772 769 765 761 759 757 753 747 743 739 737 736 734 731 729
766 769 773 775 777 780 782 784 787 789 792 794 796 797 798 799 801 802 803 804 805 806 806 807 807 807 808 808 807 807 807 807 807 807 806 805 805 804 803 803 803 802 802 802 801 800 800 799 798 797 797 796 794 794 793 792 791 789 788 787 787 786 786 785 784 782 780 778 775 772 769 766 763 758 755 754 751 747 743 738 732 730 730 728 726
763 766 768 770 773 777 780 783 784 786 789 791 793 794 795 797 798 800 801 802 803 804 804 805 805 806 806 806 805 805 805 805 805 805 804 804 803 802 801 801 800 800 800 799 799 798 797 796 796 795 794 793 792 791 790 789 788 786 785 784 784 784 783 782 781 780 778 775 773 770 766 763 759 755 752 750 747 743 741 739 733 728 726 724 722
759 762 764 765 769 775 780 781 782 785 787 789 790 791 792 794 796 798 799 800 801 802 802 803 803 803 804 803 803 803 803 803 803 803 802 802 801 800 800 799 798 798 797 796 796 795 795 794 793 792 791 790 789 788 787 786 785 784 783 782 782 781 780 779 778 776 775 773 770 767 764 760 756 752 749 747 745 740 738 736 732 727 724 720 716
755 757 759 761 768 775 779 780 781 783 784 786 787 788 790 792 794 796 797 797 798 799 800 800 800 801 801 801 801 801 801 801 800 800 800 800 799 799 798 797 796 795 794 794 793 792 792 792 790 790 789 788 787 785 784 783 782 781 780 780 779 779 777 777 775 773 772 770 768 765 761 757 753 750 746 743 741 738 735 733 728 724 722 717 710
752 756 758 763 771 777 778 778 780 781 782 783 785 786 788 790 792 793 794 795 796 796 797 797 797 798 798 798 798 798 798 798 798 798 798 798 797 796 795 795 794 793 792 791 790 789 789 788 787 787 786 785 784 783 782 780 779 778 778 777 776 776 775 774 772 771 770 768 765 763 759 753 749 747 744 740 737 734 731 729 726 722 719 716 709
753 759 764 772 778 776 773 773 776 779 780 781 782 784 787 788 789 791 791 792 793 793 794 794 794 795 795 795 795 795 795 795 795 796 795 795 795 794 793 792 791 791 790 789 788 787 786 785 784 784 784 783 782 781 779 777 776 776 775 774 773 773 772 771 770 769 768 766 763 760 756 750 746 744 742 738 733 729 727 725 722 719 715 713 708
752 756 763 773 777 773 768 769 773 776 777 778 780 782 784 785 786 788 788 789 790 791 792 792 792 792 792 792 792 791 791 792 792 793 792 792 792 792 791 790 789 788 787 786 785 784 783 782 782 781 781 781 780 778 776 775 774 773 772 771 771 770 770 769 768 767 765 763 761 757 752 748 744 741 738 735 730 726 721 718 716 714 710 706 704
748 750 755 763 768 768 766 767 770 773 774 776 778 780 781 782 783 785 786 787 787 788 789 788 788 788 788 789 789 788 788 789 789 790 790 790 790 790 789 788 787 786 785 784 783 781 780 780 779 779 778 778 777 776 774 773 772 771 770 769 768 767 767 766 765 764 762 760 758 753 749 746 742 737 734 731 727 722 717 712 709 707 704 701 698
746 748 751 758 766 768 765 764 767 769 770 773 775 776 777 778 780 781 782 783 784 784 785 785 784 785 785 785 786 785 786 786 787 787 788 788 788 787 786 786 785 784 782 781 781 779 778 778 777 776 775 775 774 773 772 771 769 768 767 766 765 764 763 763 762 760 758 756 753 750 745 742 738 733 729 725 722 717 712 707 703 700 697 694 691
746 749 753 758 765 766 763 762 764 765 767 769 771 772 774 774 776 777 778 779 780 780 781 781 780 781 782 782 783 783 783 783 784 785 785 786 785 785 784 783 782 781 780 779 778 777 777 776 775 774 772 772 771 770 770 769 767 766 765 763 762 761 760 759 759 757 755 752 749 746 741 737 733 729 724 720 715 710 705 700 696 693 690 686 683
755 758 759 761 763 762 759 759 760 761 763 765 767 768 769 770 771 772 774 775 776 777 777 777 777 778 780 781 781 780 781 781 782 782 783 783 782 782 782 781 780 779 778 777 776 775 775 774 772 771 770 769 769 768 768 766 765 764 762 761 760 758 756 756 755 753 751 748 745 741 737 732 728 724 719 714 709 704 698 692 688 685 681 678 676
756 756 755 756 758 758 757 756 756 758 759 761 762 763 764 766 767 768 771 772 773 774 775 775 776 777 778 778 778 778 779 779 780 780 780 780 780 780 780 779 778 777 776 775 774 773 773 772 770 769 768 767 767 766 765 764 762 761 760 758 757 755 753 753 751 748 747 744 741 737 732 728 724 719 714 708 702 698 692 684 679 675 672 670 668
743 744 745 749 753 755 753 753 753 754 755 756 758 759 761 762 764 766 768 770 771 772 773 774 776 776 775 776 776 777 777 777 778 778 778 778 778 778 777 777 776 775 774 773 772 771 770 769 768 767 766 765 765 764 763 762 760 759 758 756 755 752 751 750 747 744 742 739 736 732 727 723 719 714 708 702 695 690 684 677 671 666 663 661 661
733 736 741 743 747 750 751 750 749 750 752 753 754 756 758 760 762 764 766 768 769 771 772 774 774 774 773 774 774 775 775 775 776 776 776 776 776 776 775 775 774 773 772 771 769 769 768 767 766 765 765 764 763 762 761 760 758 757 756 755 753 751 749 747 745 742 740 737 733 729 725 720 715 710 703 696 689 682 675 669 663 658 655 654 654
734 738 743 745 748 752 752 749 747 747 749 750 751 754 757 759 761 763 764 766 767 769 770 771 771 771 771 772 773 773 773 774 774 774 774 774 774 774 773 772 772 772 770 769 768 767 767 766 765 764 764 763 762 760 759 758 757 756 755 754 752 750 747 745 742 741 738 735 730 726 723 718 713 707 700 691 684 676 668 661 655 651 649 648 649
735 739 744 750 755 757 753 748 745 746 747 748 751 754 757 759 760 761 762 764 765 766 767 768 769 770 770 770 771 772 772 772 772 772 772 772 772 772 771 771 770 770 769 767 767 766 765 764 764 763 762 761 760 759 758 757 756 755 754 752 751 748 746 743 741 739 736 733 729 725 720 716 710 704 697 688 679 671 663 655 648 644 643 643 644
732 735 740 748 755 756 752 747 745 745 746 749 751 754 756 757 758 759 760 761 763 764 765 766 768 769 769 769 770 771 771 770 770 770 770 770 770 770 770 770 769 768 767 766 765 765 764 763 762 762 761 760 759 758 757 757 756 754 753 751 749 747 744 742 740 737 734 731 728 724 720 715 710 703 695 686 677 669 662 653 645 639 638 639 641
729 732 736 743 751 755 751 746 745 745 747 749 751 753 755 756 757 758 759 760 761 763 763 765 766 767 768 768 768 769 769 768 768 768 768 769 769 769 768 768 768 767 766 765 764 764 763 762 761 760 759 758 758 758 757 756 755 753 751 749 747 745 743 741 738 736 733 731 728 724 720 715 710 704 697 688 679 672 664 656 646 638 636 638 639
728 731 734 740 748 751 747 743 744 745 746 748 750 751 754 755 756 757 758 758 759 760 762 764 765 766 766 766 766 767 766 766 766 767 767 767 768 767 767 767 766 766 765 764 763 763 761 760 760 759 758 758 757 757 756 755 753 751 749 748 746 744 742 740 738 736 733 731 728 724 720 715 710 704 698 691 683 674 665 656 648 641 637 638 640
725 728 733 739 744 745 742 741 743 744 746 748 749 751 753 754 754 755 756 756 757 759 761 763 764 764 765 765 765 765 764 764 765 765 765 766 766 766 766 765 765 764 764 763 763 762 760 759 759 758 758 757 757 756 755 754 752 750 748 746 745 743 742 740 738 736 734 731 728 724 719 715 709 703 697 692 685 676 666 659 653 645 640 639 640
726 730 734 737 739 739 739 740 743 744 746 748 749 750 751 751 752 753 754 755 756 758 760 761 762 763 763 763 763 763 763 763 763 763 764 765 765 765 764 764 764 763 762 762 761 760 759 759 758 758 758 757 756 755 754 753 751 749 748 746 745 744 742 740 739 737 734 731 728 723 719 714 708 703 697 692 686 679 671 665 659 651 645 642 642
725 730 732 734 737 739 740 742 743 744 746 748 748 749 749 750 751 752 753 754 755 757 759 760 760 761 761 762 762 762 762 762 762 762 763 763 763 763 763 763 763 762 761 761 761 760 759 759 758 758 757 756 756 755 753 752 750 749 747 746 745 744 742 740 738 736 734 731 728 723 718 713 709 704 699 694 688 682 676 671 664 657 652 649 647
725 727 730 733 736 738 739 741 743 744 746 747 747 748 749 749 751 751 753 754 755 757 758 758 759 760 760 760 760 760 760 760 761 761 762 762 762 762 762 762 762 761 761 761 760 760 759 758 758 757 756 755 755 753 752 751 750 748 748 746 745 743 741 739 737 735 733 731 727 723 718 714 710 705 700 696 691 685 680 676 669 662 657 654 652
728 730 731 734 736 737 738 742 744 745 745 746 746 747 749 750 751 752 753 754 755 756 757 757 758 758 758 759 759 759 759 760 760 761 761 761 762 761 761 761 761 761 760 760 760 759 759 758 758 757 756 755 754 753 752 751 750 749 747 746 745 743 741 739 737 735 733 731 728 724 719 715 711 707 702 698 693 688 684 679 672 665 662 659 657
732 731 731 733 737 740 742 744 744 745 745 745 745 746 748 750 752 753 753 754 755 756 756 756 757 757 757 758 758 758 759 759 759 760 760 760 761 761 761 761 761 760 760 760 759 759 758 758 757 757 756 755 754 753 753 751 750 749 748 747 745 743 741 740 737 735 733 731 728 725 721 717 713 709 704 700 696 691 686 681 674 669 667 664 661
737 733 730 731 736 739 741 741 742 743 743 744 745 746 747 749 751 753 753 753 754 755 755 755 756 756 756 757 757 758 758 759 759 759 759 759 760 760 761 761 760 760 760 760 760 759 759 758 758 757 756 755 754 753 753 752 751 750 748 747 746 744 742 740 738 736 734 731 729 726 722 718 714 710 706 703 698 694 688 683 678 675 672 669 666
734 732 730 730 733 736 737 738 739 740 741 742 743 744 745 747 749 750 752 753 753 754 754 755 755 755 756 757 757 757 758 758 758 759 759 759 760 760 761 761 760 760 760 760 760 759 759 759 758 757 756 755 754 753 753 752 751 750 749 748 747 745 743 741 738 736 734 732 729 727 723 719 716 712 709 705 701 697 693 688 685 681 677 674 671
728 729 730 730 732 735 736 736 738 739 740 741 742 743 744 745 746 747 750 751 752 753 754 754 755 755 756 757 757 757 758 758 758 759 759 759 759 760 760 761 761 761 761 761 760 760 760 759 758 758 757 756 754 754 753 752 751 750 749 748 747 745 743 741 738 736 734 732 730 727 724 721 717 714 711 707 704 700 696 693 690 687 683 680 677
727 729 730 731 733 734 735 736 737 738 739 740 741 741 742 743 744 746 747 749 750 752 753 755 755 756 756 757 757 758 758 758 758 759 759 759 759 759 760 761 761 761 761 761 761 761 761 760 759 758 757 756 755 754 753 752 751 750 749 748 747 745 743 741 739 737 734 732 730 728 725 722 719 715 713 710 706 703 700 697 694 691 688 685 682
726 728 730 731 733 734 735 736 737 737 738 739 739 740 741 742 743 745 746 747 749 751 752 754 755 756 756 757 758 758 759 759 759 760 760 760 759 759 760 760 761 761 761 762 762 761 761 761 760 759 758 757 756 755 753 752 751 750 749 748 747 745 744 742 740 737 735 733 731 728 726 723 720 717 714 711 709 707 704 701 697 694 691 688 685
726 728 729 731 732 733 735 735 736 736 737 737 738 739 740 742 743 745 746 747 748 749 751 753 753 754 756 757 757 758 759 759 760 760 761 761 760 760 760 760 760 761 761 762 762 761 761 760 760 759 758 757 756 755 754 752 751 750 749 748 747 745 744 743 741 739 736 734 731 729 727 724 722 719 715 713 711 709 706 703 700 696 694 691 688
727 728 729 731 732 732 734 735 735 735 736 736 737 738 739 741 742 743 745 746 747 748 750 751 752 753 755 756 757 758 758 759 759 760 761 761 761 761 761 761 761 761 761 761 761 761 761 760 760 759 758 757 756 755 754 753 752 751 749 748 747 746 745 743 742 740 737 735 733 730 728 725 723 721 718 715 713 710 708 705 702 699 696 693 691
726 728 729 730 731 732 733 733 734 735 736 736 737 737 738 739 741 742 743 745 746 747 748 750 751 752 754 755 756 757 757 758 758 759 760 761 762 762 762 761 761 761 761 761 761 761 760 760 760 759 758 757 756 755 754 753 752 751 750 748 747 746 745 744 742 740 738 736 734 731 729 727 725 722 720 717 715 712 710 707 705 702 699 697 694
726 728 730 731 731 732 733 733 734 735 736 736 736 736 737 738 738 740 742 743 744 746 747 748 750 751 753 754 755 756 756 757 757 757 758 759 760 761 761 761 761 761 761 761 761 760 760 760 759 759 758 758 757 756 755 753 752 751 750 749 747 746 745 744 743 741 739 737 735 733 730 728 726 724 722 719 717 715 712 710 707 705 702 699 696
727 729 730 730 731 732 732 733 734 735 736 737 736 737 738 739 740 741 741 742 744 745 746 747 749 751 752 754 754 755 756 756 756 756 757 758 759 760 761 761 761 760 760 760 760 760 760 760 759 759 758 758 757 756 755 754 752 751 750 749 748 747 746 745 743 742 740 738 736 734 732 730 727 726 724 721 719 717 714 712 709 707 704 701 698
728 729 730 730 731 732 732 733 734 735 736 737 737 738 739 740 741 742 743 743 744 744 745 747 749 751 752 753 754 755 755 755 755 756 757 757 759 760 760 760 760 760 760 760 760 760 760 759 759 759 758 758 757 756 755 754 753 752 751 749 748 748 747 745 744 743 741 739 738 735 733 731 729 727 725 723 721 719 717 714 712 709 706 704 701
727 728 729 730 731 732 732 733 734 735 736 736 737 738 738 738 740 742 743 743 743 744 744 746 748 750 752 753 754 754 754 754 755 756 756 757 758 759 759 759 759 759 760 760 759 760 760 759 759 759 758 758 758 757 756 755 754 752 751 750 749 748 747 746 745 743 742 740 739 737 735 733 730 729 727 725 722 720 719 716 714 712 709 707 704
728 729 730 730 731 732 733 733 734 734 735 736 737 738 738 739 741 742 743 742 742 743 744 746 748 749 751 752 753 753 754 754 754 755 755 756 757 758 758 759 759 759 759 759 759 759 759 759 759 758 758 758 758 757 756 755 754 753 752 751 750 749 748 747 746 744 743 741 740 738 736 734 732 730 728 726 724 722 720 718 717 715 712 710 707
728 729 730 731 731 732 733 733 733 734 735 736 737 737 738 739 740 742 743 742 742 743 744 745 746 748 750 750 751 752 753 753 754 754 755 755 756 757 757 758 758 758 759 759 759 759 759 759 758 758 758 758 758 757 757 756 754 753 752 751 750 749 748 748 747 745 744 743 741 740 738 736 734 732 731 729 727 725 723 721 719 717 715 713 710
729 730 730 731 731 732 733 733 734 734 734 734 735 736 737 738 739 740 741 741 742 742 743 744 746 747 748 749 750 751 751 752 753 753 753 754 755 756 756 756 757 758 758 759 759 759 759 759 758 758 758 758 758 758 757 756 755 754 753 752 751 750 750 749 748 747 745 744 743 741 740 738 736 735 733 731 729 727 725 723 721 719 718 716 714
730 730 731 731 731 731 732 732 733 733 734 734 735 736 737 738 738 739 740 740 741 742 742 743 745 746 747 748 749 749 750 751 751 752 752 753 754 755 755 755 756 757 758 758 759 759 759 759 758 758 758 758 758 758 757 756 755 755 754 753 752 751 751 750 749 748 746 745 744 742 741 740 738 736 735 733 731 729 728 726 724 722 720 718 716
730 730 731 731 731 731 731 732 732 733 733 733 734 735 736 736 737 738 738 739 740 741 741 742 743 744 745 746 747 748 748 749 750 751 752 752 753 754 754 754 755 756 757 758 758 759 758 758 758 758 758 758 758 758 758 757 756 755 754 753 753 752 751 751 750 748 747 746 745 743 742 741 739 738 736 735 733 732 730 728 727 725 723 721 719
730 730 730 731 731 731 731 731 732 732 732 732 733 734 734 735 735 736 737 738 738 739 740 741 742 743 744 745 745 746 747 748 748 749 750 751 752 753 754 754 755 755 756 757 758 758 757 758 758 758 758 758 758 758 758 757 756 755 755 754 753 753 752 751 750 749 748 747 746 744 743 742 740 739 738 737 735 734 732 731 729 728 726 724 722
729 730 730 730 731 731 731 731 731 731 731 731 731 731 732 733 733 734 735 736 737 737 739 739 740 741 742 742 743 745 745 746 747 748 749 750 751 752 753 754 754 755 756 756 757 757 757 757 758 758 758 758 758 758 758 757 756 756 755 754 753 753 752 752 751 750 749 748 746 745 744 743 742 741 739 738 737 736 734 733 732 730 729 727 725
728 729 729 730 730 730 730 731 731 731 730 730 730 729 730 730 730 731 732 733 734 735 736 737 738 738 740 741 742 743 744 745 746 746 747 748 749 750 752 753 754 754 755 756 756 756 756 757 757 758 758 758 758 758 758 757 756 756 755 754 753 753 752 752 751 750 750 749 748 746 745 744 743 742 740 739 739 737 736 735 734 732 731 730 728